Temp
88 92 92 91 94 95 96 97 93 90 91 89 88 88 87 89 89 88 87 84 84 90
88 88 92 91 92 95 93 95 91 91 89 89 88 88 86 89 86 86 85 86 84 86
90 88 89 91 89 91 93 92 91 90 90 89 88 87 85 88 86 83 87 88 84 83
90 91 90 90 90 90 91 90 89 88 88 88 87 87 85 86 87 82 83 84 83 82
86 88 92 91 91 92 90 90 89 89 88 88 87 87 85 84 87 83 83 83 82 82
87 90 90 91 90 91 90 89 89 88 87 87 87 87 86 86 85 85 84 84 82 82
86 89 89 89 89 90 89 88 87 87 86 87 88 87 88 87 85 85 85 85 84 83
86 87 87 87 88 88 87 88 88 87 87 88 88 90 87 87 85 82 81 79 76 82
87 87 87 86 86 86 86 87 87 87 87 87 91 79 76 83 85 81 78 75 74 75
87 87 87 88 87 86 86 88 86 86 87 86 87 73 72 74 78 77 73 71 74 71
89 89 88 88 87 86 84 84 84 86 85 85 87 69 68 71 69 67 68 70 73 76
90 90 89 88 88 88 88 86 84 84 84 83 85 65 66 69 70 71 70 71 73 76
89 89 88 88 87 87 88 88 86 86 85 79 84 63 64 67 71 69 70 70 71 67
89 87 87 86 86 86 86 86 86 86 84 82 80 78 62 63 71 75 73 73 70 70
MSLP
1015.51 1015.70 1015.87 1015.93 1015.69 1015.60 1015.53 1015.55 1016.03 1016.59 1016.77 1017.25 1017.72 1017.85 1018.12 1018.25 1018.36 1018.70 1018.90 1019.11 1019.17 1018.46
1015.47 1015.51 1015.14 1015.47 1015.76 1015.70 1015.84 1015.85 1016.31 1016.44 1016.79 1017.08 1017.45 1017.66 1017.93 1018.01 1018.47 1018.80 1019.08 1019.01 1019.25 1019.14
1014.52 1015.19 1015.29 1015.36 1015.57 1015.51 1015.51 1015.94 1016.20 1016.43 1016.58 1016.87 1017.11 1017.35 1017.82 1017.80 1018.23 1018.62 1018.66 1018.70 1019.03 1019.21
1013.90 1014.10 1014.74 1014.88 1015.04 1015.31 1015.41 1015.63 1015.94 1016.19 1016.45 1016.64 1016.88 1017.13 1017.47 1017.57 1017.67 1018.35 1018.51 1018.71 1018.95 1019.09
1013.41 1013.79 1013.68 1014.12 1014.29 1014.57 1014.85 1015.15 1015.52 1015.75 1016.01 1016.25 1016.49 1016.79 1017.12 1017.42 1017.46 1018.11 1018.34 1018.62 1018.87 1018.94
1013.12 1013.20 1013.39 1013.55 1013.76 1014.05 1014.27 1014.55 1014.90 1015.29 1015.49 1015.65 1015.88 1016.18 1016.49 1016.80 1017.03 1017.33 1017.55 1017.89 1018.38 1018.55
1012.59 1012.81 1013.01 1013.20 1013.52 1013.81 1013.97 1014.12 1014.39 1014.59 1014.85 1015.07 1015.22 1015.39 1015.75 1016.07 1016.43 1016.81 1017.08 1017.03 1017.03 1017.45
1012.80 1012.89 1012.98 1013.25 1013.40 1013.49 1013.58 1013.62 1013.82 1014.01 1014.11 1014.29 1014.39 1014.54 1015.03 1015.23 1015.68 1016.13 1016.45 1016.90 1016.61 1016.37
1012.35 1012.50 1012.52 1012.76 1012.91 1013.05 1013.15 1013.15 1013.21 1013.30 1013.39 1013.40 1013.34 1013.48 1014.18 1014.77 1015.07 1015.83 1016.31 1016.94 1017.33 1016.97
1011.76 1012.00 1012.06 1012.08 1012.20 1012.27 1012.42 1012.38 1012.41 1012.61 1012.60 1012.57 1012.69 1012.73 1013.24 1014.18 1015.47 1016.93 1018.03 1017.54 1016.93 1017.21
1011.56 1011.67 1011.74 1011.79 1011.85 1011.97 1012.12 1012.22 1012.09 1011.94 1012.01 1011.97 1012.00 1012.25 1012.98 1014.02 1014.91 1013.31 1015.15 1015.59 1016.53 1016.24
1011.45 1011.54 1011.60 1011.63 1011.69 1011.72 1011.69 1011.75 1011.85 1011.78 1011.69 1011.69 1011.39 1011.64 1012.62 1013.29 1013.43 1013.82 1014.44 1014.55 1015.29 1015.51
1011.45 1011.59 1011.63 1011.73 1011.75 1011.73 1011.59 1011.36 1011.57 1011.35 1011.24 1011.17 1011.11 1011.71 1012.47 1013.00 1013.67 1014.11 1014.33 1014.23 1015.06 1015.54
1011.32 1011.49 1011.54 1011.60 1011.55 1011.48 1011.36 1011.24 1010.95 1010.73 1010.76 1010.85 1010.86 1011.12 1012.09 1012.46 1012.79 1012.81 1013.30 1013.67 1014.37 1014.82
Wind_Speed
12 9 9 9 8 7 6 4 2 7 6 6 6 6 5 5 4 2 4 5 6 6
10 12 10 10 8 8 7 5 5 6 7 7 7 7 6 5 4 2 4 3 4 6
13 13 12 10 11 10 8 7 6 7 8 8 8 8 8 6 6 6 5 4 3 4
12 13 12 12 11 11 10 9 9 9 9 9 9 10 9 8 6 8 6 5 5 6
13 12 12 12 12 12 12 11 11 10 10 10 11 10 11 11 7 8 7 6 6 7
13 12 12 13 11 12 12 12 12 12 13 13 12 13 13 12 11 11 10 8 7 7
6 9 10 10 10 11 11 12 12 13 13 14 14 14 13 13 12 11 10 12 12 11
5 4 5 8 11 10 10 11 13 14 14 15 15 13 15 15 14 13 12 9 9 11
8 8 9 10 10 9 11 12 12 14 14 15 13 13 15 14 14 13 10 8 9 4
4 6 6 6 7 9 10 11 11 13 13 14 15 11 17 15 9 5 6 7 11 9
2 0 2 4 5 6 6 8 10 11 11 11 13 12 15 19 15 9 18 15 15 15
2 2 2 3 4 5 6 7 8 8 10 12 14 10 18 22 17 14 13 14 13 14
3 2 3 4 5 4 6 7 6 8 8 10 12 12 19 18 9 9 9 9 12 14
2 1 2 3 5 5 7 7 8 7 7 7 8 7 20 21 12 11 10 11 11 11
Wind_Direction
204 216 224 225 257 237 246 241 137 201 207 201 195 204 201 221 242 204 242 248 269 279
217 228 219 236 225 231 243 258 215 211 203 196 198 202 194 232 218 218 227 229 247 260
209 222 230 227 230 242 242 231 236 221 211 205 203 201 201 206 192 206 212 233 198 246
223 209 218 227 228 234 232 230 222 219 223 218 212 206 205 225 196 205 206 227 217 224
206 227 213 222 224 228 231 227 233 224 219 219 218 214 213 215 211 213 214 216 226 234
211 212 226 233 227 235 229 229 228 225 223 220 217 216 215 214 211 206 209 207 215 231
214 220 223 233 241 240 238 234 232 228 227 228 224 219 218 211 211 208 206 205 201 205
215 230 241 253 256 251 246 243 239 239 231 229 227 224 216 214 206 207 210 223 225 206
248 255 249 247 250 252 249 248 248 243 238 234 233 214 201 215 203 206 210 222 235 224
238 247 248 252 255 256 254 255 249 244 242 241 240 217 181 183 171 99 323 263 248 224
148 168 313 300 289 284 272 258 259 252 247 245 246 191 184 145 125 158 214 228 235 233
91 20 350 312 304 296 290 282 270 266 260 254 255 189 169 167 184 199 215 198 221 227
96 23 352 338 313 301 278 256 266 279 270 269 267 163 178 184 187 204 205 184 214 234
112 14 339 318 310 302 290 297 283 271 250 264 261 207 187 197 201 206 201 203 211 216